EWG1PA ELLX-LDZA

Flight info

Callsign EWG1PA
Flight time 1h 15m
Altitude 37000
Route LIMGO Z111 PITES DCT VEKIR DCT LATLO DCT MAGAM DCT LULUD
Aircraft A320/M-SDE3FGHIRWY/LB1

Departure

Time 2026-04-30 21:41
Airport Luxembourg-Findel International Airport (ELLX)

Arrival

Time 2026-04-30 22:57
Airport Zagreb Franjo Tuđman International Airport (LDZA)
Time Latitude Longitude Altitude Speed Heading
2026-04-30 21:23 49.63330 6.21639 1230 ft 0 kts 358°
2026-04-30 21:34 49.63329 6.21639 1230 ft 2 kts 358°
2026-04-30 21:34 49.63282 6.21657 1230 ft 4 kts 300°
2026-04-30 21:34 49.63279 6.21673 1230 ft 0 kts 238°
2026-04-30 21:37 49.63227 6.21693 1230 ft 11 kts 138°
2026-04-30 21:37 49.63149 6.21763 1227 ft 14 kts 164°
2026-04-30 21:37 49.63082 6.21670 1225 ft 15 kts 242°
2026-04-30 21:37 49.63032 6.21500 1227 ft 20 kts 245°
2026-04-30 21:38 49.62964 6.21281 1232 ft 24 kts 244°
2026-04-30 21:38 49.62883 6.21019 1233 ft 30 kts 245°
2026-04-30 21:38 49.62787 6.20740 1245 ft 29 kts 232°
2026-04-30 21:38 49.62631 6.20529 1247 ft 31 kts 227°
2026-04-30 21:39 49.62484 6.20253 1225 ft 36 kts 235°
2026-04-30 21:39 49.62349 6.19886 1204 ft 42 kts 240°
2026-04-30 21:39 49.62194 6.19468 1181 ft 47 kts 240°
2026-04-30 21:39 49.62083 6.19155 1165 ft 27 kts 240°
2026-04-30 21:40 49.61973 6.18884 1157 ft 30 kts 241°
2026-04-30 21:40 49.61842 6.18690 1157 ft 18 kts 197°
2026-04-30 21:40 49.61776 6.18804 1161 ft 15 kts 76°
2026-04-30 21:40 49.61826 6.18949 1164 ft 19 kts 61°
2026-04-30 21:41 49.61970 6.19338 1172 ft 75 kts 60°
2026-04-30 21:41 49.62324 6.20292 1225 ft 128 kts 60°
2026-04-30 21:41 49.62808 6.21628 1579 ft 145 kts 62°
2026-04-30 21:41 49.63302 6.23000 2291 ft 146 kts 69°
2026-04-30 21:42 49.63580 6.24452 2979 ft 139 kts 89°
2026-04-30 21:42 49.63685 6.25932 3672 ft 138 kts 91°
2026-04-30 21:42 49.63776 6.27411 4293 ft 139 kts 90°
2026-04-30 21:42 49.64061 6.28891 4768 ft 155 kts 70°
2026-04-30 21:43 49.64431 6.30540 4974 ft 170 kts 97°
2026-04-30 21:43 49.64102 6.32386 5216 ft 190 kts 112°
2026-04-30 21:43 49.63582 6.34404 5510 ft 215 kts 113°
2026-04-30 21:43 49.62988 6.36663 5934 ft 239 kts 113°
2026-04-30 21:44 49.62355 6.39129 6612 ft 253 kts 112°
2026-04-30 21:44 49.61716 6.41692 7435 ft 259 kts 111°
2026-04-30 21:44 49.61074 6.44319 8276 ft 264 kts 111°
2026-04-30 21:44 49.60426 6.47000 9130 ft 269 kts 110°
2026-04-30 21:45 49.59771 6.49729 9990 ft 274 kts 110°
2026-04-30 21:45 49.59101 6.52534 10612 ft 288 kts 110°
2026-04-30 21:45 49.58393 6.55507 10908 ft 311 kts 110°
2026-04-30 21:45 49.57625 6.58734 11321 ft 327 kts 110°
2026-04-30 21:46 49.56834 6.62062 12028 ft 333 kts 110°
2026-04-30 21:46 49.56031 6.65434 12789 ft 337 kts 110°
2026-04-30 21:46 49.55126 6.68710 13931 ft 325 kts 119°
2026-04-30 21:46 49.53984 6.72033 11678 ft 397 kts 110°
2026-04-30 21:47 49.53195 6.76220 11114 ft 426 kts 105°
2026-04-30 21:47 49.52453 6.80407 13454 ft 384 kts 105°
2026-04-30 21:47 49.51712 6.84182 15267 ft 358 kts 107°
2026-04-30 21:47 49.50897 6.87783 16201 ft 356 kts 109°
2026-04-30 21:48 49.49996 6.91341 16916 ft 358 kts 110°
2026-04-30 21:48 49.49059 6.94905 17589 ft 361 kts 110°
2026-04-30 21:48 49.48120 6.98504 18260 ft 364 kts 110°
2026-04-30 21:48 49.47190 7.02145 18862 ft 368 kts 110°
2026-04-30 21:49 49.46271 7.05830 19434 ft 371 kts 109°
2026-04-30 21:49 49.45360 7.09548 20014 ft 373 kts 109°
2026-04-30 21:49 49.44447 7.13305 20601 ft 376 kts 109°
2026-04-30 21:49 49.43526 7.17087 21164 ft 380 kts 109°
2026-04-30 21:50 49.42594 7.20908 21719 ft 384 kts 109°
2026-04-30 21:50 49.41654 7.24755 22285 ft 386 kts 109°
2026-04-30 21:50 49.40704 7.28630 22837 ft 389 kts 109°
2026-04-30 21:50 49.39745 7.32536 23378 ft 392 kts 109°
2026-04-30 21:51 49.38778 7.36465 23905 ft 395 kts 109°
2026-04-30 21:51 49.37801 7.40420 24328 ft 398 kts 109°
2026-04-30 21:51 49.36815 7.44400 24744 ft 400 kts 109°
2026-04-30 21:51 49.35821 7.48403 25153 ft 403 kts 109°
2026-04-30 21:52 49.34819 7.52426 25540 ft 405 kts 109°
2026-04-30 21:52 49.33813 7.56471 25934 ft 407 kts 109°
2026-04-30 21:52 49.32798 7.60541 26326 ft 410 kts 109°
2026-04-30 21:52 49.31777 7.64631 26698 ft 412 kts 109°
2026-04-30 21:53 49.30749 7.68749 27089 ft 415 kts 109°
2026-04-30 21:53 49.29716 7.72882 27459 ft 417 kts 109°
2026-04-30 21:53 49.28674 7.77045 27822 ft 419 kts 109°
2026-04-30 21:53 49.27625 7.81222 28177 ft 422 kts 109°
2026-04-30 21:54 49.26563 7.85427 28524 ft 424 kts 109°
2026-04-30 21:54 49.25494 7.89644 28866 ft 426 kts 109°
2026-04-30 21:54 49.24416 7.93883 29242 ft 428 kts 109°
2026-04-30 21:54 49.23337 7.98126 29580 ft 429 kts 109°
2026-04-30 21:55 49.22254 8.02392 29918 ft 431 kts 108°
2026-04-30 21:55 49.21166 8.06679 30224 ft 433 kts 108°
2026-04-30 21:55 49.20074 8.10975 30493 ft 434 kts 108°
2026-04-30 21:55 49.18989 8.15230 30724 ft 436 kts 108°
2026-04-30 21:56 49.17868 8.19614 30939 ft 438 kts 108°
2026-04-30 21:56 49.16756 8.23944 31228 ft 438 kts 108°
2026-04-30 21:56 49.15641 8.28271 31532 ft 437 kts 108°
2026-04-30 21:56 49.14527 8.32590 31835 ft 437 kts 108°
2026-04-30 21:57 49.13413 8.36903 32133 ft 436 kts 108°
2026-04-30 21:57 49.12313 8.41156 32428 ft 436 kts 108°
2026-04-30 21:57 49.11200 8.45454 32732 ft 436 kts 108°
2026-04-30 21:57 49.10085 8.49755 33035 ft 435 kts 108°
2026-04-30 21:58 49.08973 8.54045 33343 ft 435 kts 108°
2026-04-30 21:58 49.07857 8.58332 33644 ft 435 kts 108°
2026-04-30 21:58 49.06741 8.62614 33942 ft 434 kts 108°
2026-04-30 21:58 49.05624 8.66898 34250 ft 434 kts 108°
2026-04-30 21:59 49.04508 8.71163 34526 ft 434 kts 108°
2026-04-30 21:59 49.03388 8.75434 34799 ft 433 kts 108°
2026-04-30 21:59 49.02270 8.79690 35074 ft 433 kts 108°
2026-04-30 22:00 49.00034 8.88188 35594 ft 432 kts 108°
2026-04-30 22:00 48.97784 8.96662 36098 ft 431 kts 108°
2026-04-30 22:00 48.96662 9.00888 36341 ft 430 kts 108°
2026-04-30 22:01 48.95543 9.05103 36577 ft 430 kts 108°
2026-04-30 22:01 48.94423 9.09315 36813 ft 429 kts 108°
2026-04-30 22:01 48.93302 9.13522 37029 ft 429 kts 108°
2026-04-30 22:01 48.92181 9.17723 37248 ft 428 kts 108°
2026-04-30 22:02 48.89938 9.26112 37341 ft 428 kts 107°
2026-04-30 22:02 48.87690 9.34483 37332 ft 428 kts 107°
2026-04-30 22:03 48.85430 9.42864 37342 ft 428 kts 107°
2026-04-30 22:03 48.83165 9.51237 37344 ft 429 kts 108°
2026-04-30 22:04 48.80887 9.59590 37348 ft 429 kts 108°
2026-04-30 22:05 48.77460 9.72135 37374 ft 429 kts 107°
2026-04-30 22:05 48.75305 9.80014 37366 ft 429 kts 107°
2026-04-30 22:06 48.73157 9.87814 37363 ft 429 kts 107°
2026-04-30 22:06 48.69328 10.00094 37374 ft 432 kts 112°
2026-04-30 22:07 48.66489 10.08116 37406 ft 433 kts 112°
2026-04-30 22:07 48.63671 10.16152 37421 ft 432 kts 111°
2026-04-30 22:08 48.60908 10.24219 37396 ft 432 kts 111°
2026-04-30 22:08 48.58152 10.32292 37400 ft 432 kts 111°
2026-04-30 22:09 48.55380 10.40349 37397 ft 432 kts 111°
2026-04-30 22:09 48.52588 10.48395 37420 ft 433 kts 111°
2026-04-30 22:10 48.49791 10.56430 37406 ft 433 kts 111°
2026-04-30 22:10 48.46992 10.64462 37402 ft 433 kts 111°
2026-04-30 22:11 48.42788 10.76513 37396 ft 433 kts 111°
2026-04-30 22:12 48.39968 10.84543 37420 ft 434 kts 111°
2026-04-30 22:12 48.37146 10.92568 37408 ft 434 kts 111°
2026-04-30 22:13 48.34310 11.00587 37400 ft 434 kts 111°
2026-04-30 22:13 48.31955 11.07244 37395 ft 434 kts 111°
2026-04-30 22:14 48.29116 11.15259 37390 ft 434 kts 111°
2026-04-30 22:14 48.26266 11.23259 37419 ft 435 kts 111°
2026-04-30 22:15 48.23407 11.31261 37383 ft 435 kts 111°
2026-04-30 22:15 48.20535 11.39264 37365 ft 436 kts 111°
2026-04-30 22:16 48.17657 11.47254 37363 ft 436 kts 111°
2026-04-30 22:17 48.11891 11.63231 37397 ft 436 kts 111°
2026-04-30 22:17 48.07551 11.75194 37399 ft 436 kts 111°
2026-04-30 22:18 48.03287 11.86876 37396 ft 436 kts 111°
2026-04-30 22:19 47.98922 11.98814 37422 ft 437 kts 111°
2026-04-30 22:20 47.94525 12.10752 37394 ft 438 kts 111°
2026-04-30 22:20 47.90111 12.22684 37388 ft 438 kts 111°
2026-04-30 22:21 47.87156 12.30638 37393 ft 439 kts 111°
2026-04-30 22:21 47.84198 12.38587 37393 ft 439 kts 111°
2026-04-30 22:22 47.81233 12.46527 37395 ft 439 kts 111°
2026-04-30 22:22 47.78267 12.54450 37396 ft 439 kts 111°
2026-04-30 22:23 47.75289 12.62387 37394 ft 440 kts 111°
2026-04-30 22:23 47.72312 12.70274 37419 ft 439 kts 112°
2026-04-30 22:24 47.69316 12.78182 37389 ft 439 kts 112°
2026-04-30 22:24 47.65655 12.85579 37384 ft 449 kts 122°
2026-04-30 22:25 47.61660 12.92698 37375 ft 449 kts 123°
2026-04-30 22:25 47.57646 12.99808 37382 ft 450 kts 123°
2026-04-30 22:26 47.51628 13.10443 37415 ft 451 kts 123°
2026-04-30 22:27 47.47633 13.17503 37407 ft 451 kts 123°
2026-04-30 22:27 47.41582 13.28146 37392 ft 451 kts 123°
2026-04-30 22:28 47.35640 13.38539 37387 ft 451 kts 123°
2026-04-30 22:29 47.27520 13.52684 37406 ft 452 kts 124°
2026-04-30 22:31 47.13268 13.77353 37406 ft 454 kts 124°
2026-04-30 22:32 47.03023 13.94994 37400 ft 455 kts 125°
2026-04-30 22:33 46.92694 14.12600 37419 ft 456 kts 125°
2026-04-30 22:35 46.82288 14.30246 37400 ft 460 kts 126°
2026-04-30 22:36 46.71828 14.47877 37431 ft 462 kts 126°
2026-04-30 22:37 46.63396 14.61988 37419 ft 462 kts 127°
2026-04-30 22:38 46.54888 14.76173 36182 ft 470 kts 126°
2026-04-30 22:38 46.50556 14.83362 34322 ft 474 kts 125°
2026-04-30 22:39 46.48414 14.86905 33273 ft 473 kts 125°
2026-04-30 22:39 46.42071 14.97387 30490 ft 464 kts 124°
2026-04-30 22:40 46.35754 15.07787 27817 ft 453 kts 126°
2026-04-30 22:41 46.29593 15.17883 25601 ft 439 kts 127°
2026-04-30 22:41 46.25584 15.24441 24250 ft 431 kts 127°
2026-04-30 22:42 46.17763 15.37175 21548 ft 416 kts 128°
2026-04-30 22:43 46.13957 15.43366 20345 ft 409 kts 128°
2026-04-30 22:43 46.10192 15.49456 19172 ft 404 kts 128°
2026-04-30 22:44 46.06483 15.55454 17989 ft 398 kts 128°
2026-04-30 22:45 45.99038 15.66807 15814 ft 389 kts 142°
2026-04-30 22:45 45.93992 15.69492 14658 ft 395 kts 173°
2026-04-30 22:46 45.88569 15.69030 13654 ft 386 kts 180°
2026-04-30 22:47 45.79616 15.74630 12382 ft 330 kts 132°
2026-04-30 22:47 45.76002 15.78236 12121 ft 317 kts 166°
2026-04-30 22:48 45.72008 15.76512 11869 ft 303 kts 221°
2026-04-30 22:49 45.67957 15.70081 11230 ft 286 kts 231°
2026-04-30 22:49 45.63355 15.65440 10287 ft 272 kts 171°
2026-04-30 22:50 45.57754 15.71416 8818 ft 250 kts 127°
2026-04-30 22:51 45.56339 15.75645 8121 ft 232 kts 93°
2026-04-30 22:51 45.56902 15.80193 6858 ft 243 kts 60°
2026-04-30 22:52 45.57932 15.82140 6170 ft 251 kts 47°
2026-04-30 22:52 45.60410 15.85857 4740 ft 266 kts 47°
2026-04-30 22:53 45.62940 15.89675 3409 ft 255 kts 47°
2026-04-30 22:53 45.65218 15.93118 2706 ft 223 kts 47°
2026-04-30 22:53 45.66232 15.94651 2415 ft 200 kts 47°
2026-04-30 22:54 45.67941 15.97237 1931 ft 160 kts 47°
2026-04-30 22:55 45.69952 16.00285 1253 ft 131 kts 46°
2026-04-30 22:55 45.71206 16.02179 975 ft 133 kts 45°
2026-04-30 22:56 45.72489 16.04125 627 ft 135 kts 46°
2026-04-30 22:56 45.74222 16.06769 359 ft 72 kts 47°
2026-04-30 22:57 45.74613 16.07363 362 ft 33 kts 47°
2026-04-30 22:57 45.74644 16.07558 361 ft 9 kts 137°
2026-04-30 22:58 45.74568 16.07657 359 ft 9 kts 137°
2026-04-30 22:59 45.74350 16.07902 359 ft 9 kts 192°
2026-04-30 22:59 45.74233 16.07840 358 ft 7 kts 136°